This demonstration page uses our WeatherBlox Daily Observations layout. Learn more.

Left ArrowRight Arrow

Hourly Observations for October 27, 2016

Temp ( °F °C ) Dew Point ( °F °C ) Humidity (%) Winds ( mph kmh ) Pressure ( in mb ) Visibility ( mi km ) Precip ( " mm )
12:51 am 00:51 Clear 66 18.9 41 5 40 40 E 9 15 29.99 1016 10 16 0.00 0.00
1:51 am 01:51 Clear 66 18.9 40 4.4 39 39 E 10 17 29.98 1015 10 16 0.00 0.00
2:51 am 02:51 Clear 67 19.4 40 4.4 37 37 ESE 9 15 29.98 1015 10 16 0.00 0.00
3:51 am 03:51 Clear 67 19.4 40 4.4 37 37 SE 12 19 29.99 1016 10 16 0.00 0.00
4:51 am 04:51 Clear 65 18.3 40 4.4 40 40 ESE 8 13 30.02 1017 10 16 0.00 0.00
5:51 am 05:51 Clear 61 16.1 41 5 48 48 E 9 15 30.05 1018 10 16 0.00 0.00
6:51 am 06:51 Sunny 64 17.8 40 4.4 41 41 SE 10 17 30.07 1018 10 16 0.00 0.00
7:51 am 07:51 Sunny 69 20.6 42 5.6 38 38 SE 10 17 30.09 1019 10 16 0.00 0.00
8:51 am 08:51 Sunny 74 23.3 42 5.6 32 32 ESE 13 20 30.10 1019 10 16 0.00 0.00
9:51 am 09:51 Sunny 79 26.1 41 5 26 26 ESE 10 17 30.08 1019 10 16 0.00 0.00
10:51 am 10:51 Sunny 83 28.3 42 5.6 24 24 SSE 9 15 30.06 1018 10 16 0.00 0.00
11:51 am 11:51 Sunny 85 29.4 42 5.6 22 22 SE 12 19 30.03 1017 10 16 0.00 0.00
12:51 pm 12:51 Sunny 86 30 42 5.6 21 21 S 7 11 29.97 1015 10 16 0.00 0.00
1:51 pm 13:51 Sunny 88 31.1 42 5.6 20 20 Calm 29.94 1014 10 16 0.00 0.00
2:51 pm 14:51 Sunny 90 32.2 41 5 18 18 ESE 7 11 29.91 1013 10 16 0.00 0.00
3:51 pm 15:51 Sunny 89 31.7 42 5.6 19 19 S 5 7 29.90 1013 10 16 0.00 0.00
4:51 pm 16:51 Sunny 87 30.6 41 5 20 20 ESE 6 9 29.90 1013 10 16 0.00 0.00
5:51 pm 17:51 Clear 81 27.2 41 5 24 24 E 8 13 29.92 1013 10 16 0.00 0.00
6:51 pm 18:51 Clear 78 25.6 39 3.9 25 25 E 8 13 29.94 1014 10 16 0.00 0.00
7:51 pm 19:51 Clear 79 26.1 38 3.3 23 23 E 10 17 29.93 1014 10 16 0.00 0.00
8:51 pm 20:51 Clear 78 25.6 37 2.8 23 23 E 8 13 29.94 1014 10 16 0.00 0.03
9:51 pm 21:51 Clear 73 22.8 37 2.8 27 27 SE 9 15 29.95 1014 10 16 0.00 0.00
10:51 pm 22:51 Clear 69 20.6 37 2.8 31 31 E 7 11 29.95 1014 10 16 0.00 0.00
11:51 pm 23:51 Clear 66 18.9 37 2.8 34 34 E 5 7 29.94 1014 10 16 0.00 0.03

Powered by AerisWeather